Bradford, PA

8:53 PM EDT on March 27, 2017 (GMT -0400)
Bradford Regional

Weather History for KBFD - March, 2014

Change the Weather History Date:

Sunday, March 30, 2014

  Actual Average Record
Temperature  
Mean Temperature 30 °F 37 °F  
Max Temperature 33 °F 47 °F 78 °F (1986)
Min Temperature 27 °F 27 °F 10 °F (1964)
Degree Days  
Heating Degree Days 35 22  
Month to date heating degree days 1149 837  
Since 1 July heating degree days 6815 6407  
Cooling Degree Days 0 0  
Month to date cooling degree days 0 0  
Year to date cooling degree days 0 0  
Moisture  
Dew Point 25 °F    
Average Humidity 82    
Maximum Humidity 92    
Minimum Humidity 72    
Precipitation  
Precipitation T in 0.12 in 1.57 in (1989)
Month to date precipitation 2.00 3.25  
Year to date precipitation 5.53 8.89  
Sea Level Pressure  
Sea Level Pressure 29.86 in    
Wind  
Wind Speed 14 mph (North)    
Max Wind Speed 24 mph    
Max Gust Speed 30 mph    
Visibility 5 miles    
Events Snow    
T = Trace of Precipitation, MM = Missing Value Source: NWS Daily Summary

Daily Weather History Graph

Daily Weather History Graph

Search for Another Location

Airport or City:

Trip Planner

Search our weather history database for the weather conditions in past years. The results will help you decide how hot, cold, wet, or windy it might be!

Date:

Astronomy

Mar. 30, 2014 Rise Set
Actual Time 7:00 AM EDT 7:37 PM EDT
Civil Twilight 6:32 AM EDT 8:05 PM EDT
Nautical Twilight 5:59 AM EDT 8:39 PM EDT
Astronomical Twilight 5:25 AM EDT 9:13 PM EDT
Moon 6:45 AM EDT (3/30) 7:48 PM EDT (3/30)
Length of Visible Light 13h 33m
Length of Day
12h 37m
Waning Crescent, 0% of the Moon is Illuminated
Mar 30
Waning Crescent
Mar 30
New
Apr 7
First Quarter
Apr 15
Full
Apr 22
Last Quarter

Hourly Weather History & Observations

Time (EDT) Temp. Windchill Dew Point Humidity Pressure Visibility Wind Dir Wind Speed Gust Speed Precip Events Conditions
12:08 AM 30.9 °F 20.7 °F 28.0 °F 89% 29.76 in 2.5 mi NNE 13.8 mph - 0.01 in Snow Light Snow
12:53 AM 30.0 °F 20.0 °F 27.0 °F 88% 29.80 in 2.0 mi North 12.7 mph 23.0 mph 0.01 in Snow Light Snow
1:11 AM 30.0 °F 20.5 °F 26.1 °F 85% 29.76 in 1.8 mi North 11.5 mph 20.7 mph 0.00 in Snow Light Snow
1:53 AM 28.9 °F 17.3 °F 25.0 °F 85% 29.81 in 2.0 mi North 16.1 mph 21.9 mph 0.00 in Snow Light Snow
2:05 AM 28.9 °F 18.6 °F 25.0 °F 85% 29.76 in 1.8 mi North 12.7 mph 19.6 mph 0.00 in Snow Light Snow
2:14 AM 28.9 °F 17.3 °F 25.0 °F 85% 29.76 in 2.0 mi North 16.1 mph 25.3 mph 0.00 in Snow Light Snow
2:30 AM 28.9 °F 18.6 °F 25.0 °F 85% 29.77 in 2.5 mi North 12.7 mph - 0.00 in   Overcast
2:37 AM 28.9 °F 17.7 °F 25.0 °F 85% 29.77 in 3.0 mi North 15.0 mph 21.9 mph 0.00 in   Overcast
2:53 AM 28.9 °F 19.2 °F 26.1 °F 89% 29.81 in 3.0 mi NNE 11.5 mph 18.4 mph 0.00 in   Overcast
2:58 AM 28.9 °F 19.2 °F 26.1 °F 89% 29.77 in 2.5 mi North 11.5 mph 18.4 mph 0.00 in   Overcast
3:04 AM 28.9 °F 18.2 °F 26.1 °F 89% 29.77 in 3.0 mi North 13.8 mph 23.0 mph 0.00 in   Overcast
3:49 AM 28.4 °F 19.7 °F 24.8 °F 86% 29.76 in 5.0 mi North 9.2 mph 21.9 mph 0.00 in   Overcast
3:53 AM 28.9 °F 19.8 °F 26.1 °F 89% 29.81 in 5.0 mi North 10.4 mph 19.6 mph 0.00 in   Overcast
4:31 AM 28.9 °F 17.3 °F 25.0 °F 85% 29.76 in 2.5 mi North 16.1 mph 21.9 mph 0.00 in Snow Light Snow
4:53 AM 28.0 °F 16.5 °F 25.0 °F 88% 29.81 in 1.5 mi North 15.0 mph 23.0 mph 0.00 in Snow Light Snow
5:44 AM 28.0 °F 16.5 °F 25.0 °F 88% 29.77 in 3.0 mi North 15.0 mph 25.3 mph 0.00 in Snow Light Snow
5:53 AM 28.0 °F 16.1 °F 25.0 °F 88% 29.83 in 2.5 mi North 16.1 mph 23.0 mph 0.00 in Snow Light Snow
6:04 AM 28.0 °F 16.1 °F 24.1 °F 85% 29.78 in 1.2 mi North 16.1 mph 24.2 mph 0.00 in Snow Light Snow
6:24 AM 28.0 °F 16.1 °F 24.1 °F 85% 29.78 in 2.5 mi North 16.1 mph 27.6 mph 0.00 in   Overcast
6:39 AM 28.0 °F 15.7 °F 24.1 °F 85% 29.78 in 3.0 mi North 17.3 mph 26.5 mph 0.00 in   Overcast
6:53 AM 27.0 °F 13.9 °F 23.0 °F 85% 29.84 in 8.0 mi North 18.4 mph 29.9 mph 0.00 in   Overcast
7:53 AM 28.0 °F 15.7 °F 24.1 °F 85% 29.87 in 10.0 mi North 17.3 mph 21.9 mph 0.00 in   Overcast
8:24 AM 27.0 °F 15.2 °F 24.1 °F 89% 29.82 in 3.0 mi NNW 15.0 mph 23.0 mph 0.00 in Snow Light Snow
8:34 AM 27.0 °F 13.2 °F 24.1 °F 89% 29.82 in 2.5 mi North 20.7 mph 26.5 mph 0.00 in Snow Light Snow
8:53 AM 27.0 °F 15.2 °F 24.1 °F 89% 29.89 in 2.0 mi North 15.0 mph - 0.00 in Snow Light Snow
9:00 AM 27.0 °F 15.2 °F 24.1 °F 89% 29.84 in 1.5 mi North 15.0 mph - 0.00 in Snow Light Snow
9:21 AM 27.0 °F 15.6 °F 23.0 °F 85% 29.85 in 0.8 mi NNW 13.8 mph - 0.00 in Snow Light Snow
9:29 AM 27.0 °F 17.3 °F 23.0 °F 85% 29.85 in 1.2 mi NNW 10.4 mph 23.0 mph 0.00 in Snow Light Snow
9:53 AM 27.0 °F 15.2 °F 23.0 °F 85% 29.92 in 1.5 mi NNW 15.0 mph 21.9 mph 0.00 in Snow Light Snow
10:00 AM 27.0 °F 14.7 °F 23.0 °F 85% 29.86 in 3.0 mi NNW 16.1 mph 23.0 mph 0.00 in Snow Light Snow
10:53 AM 28.0 °F 16.5 °F 23.0 °F 81% 29.92 in 2.5 mi North 15.0 mph 24.2 mph 0.00 in Snow Light Snow
11:03 AM 28.0 °F 15.7 °F 23.0 °F 81% 29.86 in 6.0 mi NNW 17.3 mph - 0.00 in   Haze
11:45 AM 28.0 °F 15.7 °F 23.0 °F 81% 29.86 in 10.0 mi NNW 17.3 mph 24.2 mph 0.00 in   Overcast
11:53 AM 27.0 °F 14.7 °F 23.0 °F 85% 29.92 in 10.0 mi NNW 16.1 mph 26.5 mph 0.00 in   Overcast
12:53 PM 28.0 °F 15.3 °F 24.1 °F 85% 29.92 in 10.0 mi North 18.4 mph - 0.00 in   Overcast
1:53 PM 28.9 °F 17.7 °F 25.0 °F 85% 29.92 in 10.0 mi North 15.0 mph 24.2 mph N/A   Overcast
2:53 PM 30.9 °F 19.8 °F 27.0 °F 85% 29.90 in 10.0 mi NNW 16.1 mph 25.3 mph N/A   Overcast
3:53 PM 32.0 °F 21.2 °F 28.0 °F 85% 29.91 in 10.0 mi NNW 16.1 mph 23.0 mph N/A   Overcast
4:53 PM 33.1 °F 22.2 °F 28.0 °F 82% 29.93 in 10.0 mi NNW 17.3 mph 24.2 mph N/A   Overcast
5:10 PM 33.1 °F 21.9 °F 28.0 °F 82% 29.88 in 10.0 mi NNW 18.4 mph 25.3 mph N/A   Overcast
5:53 PM 33.1 °F 22.6 °F 28.0 °F 82% 29.96 in 10.0 mi NNW 16.1 mph 24.2 mph N/A   Overcast
6:30 PM 33.1 °F 23.0 °F 27.0 °F 78% 29.91 in 10.0 mi NNW 15.0 mph 25.3 mph N/A   Overcast
6:53 PM 33.1 °F 24.4 °F 28.0 °F 82% 29.97 in 10.0 mi NNW 11.5 mph - N/A   Overcast
7:53 PM 33.1 °F 23.9 °F 27.0 °F 78% 29.99 in 10.0 mi NNW 12.7 mph 21.9 mph N/A   Overcast
8:28 PM 32.0 °F 22.5 °F 26.1 °F 79% 29.94 in 10.0 mi NNW 12.7 mph - N/A   Scattered Clouds
8:53 PM 32.0 °F 23.0 °F 26.1 °F 79% 30.01 in 10.0 mi NNW 11.5 mph - N/A   Clear
9:53 PM 30.9 °F 22.2 °F 25.0 °F 79% 30.02 in 10.0 mi NW 10.4 mph - N/A   Clear
10:53 PM 28.9 °F 20.4 °F 24.1 °F 82% 30.04 in 10.0 mi NNW 9.2 mph - N/A   Clear
11:53 PM 30.0 °F 21.1 °F 23.0 °F 75% 30.05 in 10.0 mi NNW 10.4 mph - N/A   Clear